Location: Czu?�w
(50.1404°N, 18.9919°E)
Time: 02:26:30
(UTC+00:00)

FALCON 9 DEB - Pass Details

Date: 27 October 2020
Orbit: 378 x 397 km, 53.0° (Epoch: 23 November)

Event Time Altitude Azimuth Distance (km) Brightness Sun altitude
Rises 17:09:59 0° 241° (WSW) 2,299 7.9 -16.7°
Reaches altitude 10° 17:12:04 10° 240° (WSW) 1,440 6.7 -17.1°
Maximum altitude 17:15:16 73° 156° (SSE) 417 2.8 -17.6°
Enters shadow 17:15:41 61° 99° (E) 453 2.8 -17.7°
